Rockford, IL

8:34 PM CDT on April 30, 2017 (GMT -0500)
Greater Rockford

Weather History for KRFD - April, 2014

Change the Weather History Date:

Wednesday, April 23, 2014

  Actual Average Record
Temperature  
Mean Temperature 45 °F 52 °F  
Max Temperature 57 °F 64 °F 86 °F (1925)
Min Temperature 33 °F 41 °F 22 °F (1927)
Degree Days  
Heating Degree Days 20 13  
Month to date heating degree days 391 394  
Since 1 July heating degree days 7375 6258  
Cooling Degree Days 0 0  
Month to date cooling degree days 0 0  
Year to date cooling degree days 0 0  
Moisture  
Dew Point 27 °F    
Average Humidity 56    
Maximum Humidity 82    
Minimum Humidity 30    
Precipitation  
Precipitation 0.07 in 0.11 in 1.66 in (1919)
Month to date precipitation 1.83 2.55  
Year to date precipitation 6.60 7.65  
Snow  
Snow 0.00 in 0.10 in 3.80 in (1967)
Month to date snowfall 0.3 0.9  
Since 1 July snowfall 56.9 36.7  
Snow Depth 0.00 in    
Sea Level Pressure  
Sea Level Pressure 30.14 in    
Wind  
Wind Speed 7 mph (East)    
Max Wind Speed 18 mph    
Max Gust Speed 23 mph    
Visibility 10 miles    
Events Rain    
T = Trace of Precipitation, MM = Missing Value Source: NWS Daily Summary

Daily Weather History Graph

Daily Weather History Graph

Search for Another Location

Airport or City:

Trip Planner

Search our weather history database for the weather conditions in past years. The results will help you decide how hot, cold, wet, or windy it might be!

Date:

Astronomy

Apr. 23, 2014 Rise Set
Actual Time 6:03 AM CDT 7:46 PM CDT
Civil Twilight 5:33 AM CDT 8:16 PM CDT
Nautical Twilight 4:57 AM CDT 8:52 PM CDT
Astronomical Twilight 4:18 AM CDT 9:31 PM CDT
Moon 2:41 AM CDT (4/23) 1:48 PM CDT (4/23)
Length of Visible Light 14h 43m
Length of Day
13h 43m
Waning Crescent, 34% of the Moon is Illuminated
Apr 23
Waning Crescent
Apr 29
New
May 6
First Quarter
May 14
Full
May 21
Last Quarter

Hourly Weather History & Observations

Time (CDT) Temp. Windchill Dew Point Humidity Pressure Visibility Wind Dir Wind Speed Gust Speed Precip Events Conditions
12:54 AM 39.0 °F 36.8 °F 27.0 °F 62% 30.13 in 10.0 mi East 3.5 mph - N/A   Clear
1:54 AM 37.0 °F 34.5 °F 27.0 °F 67% 30.14 in 10.0 mi NE 3.5 mph - N/A   Clear
2:54 AM 35.1 °F 32.2 °F 27.0 °F 72% 30.15 in 10.0 mi ENE 3.5 mph - N/A   Clear
3:54 AM 36.0 °F 31.1 °F 27.0 °F 70% 30.16 in 10.0 mi East 5.8 mph - N/A   Clear
4:54 AM 35.1 °F - 27.0 °F 72% 30.17 in 10.0 mi Calm Calm - N/A   Clear
5:54 AM 34.0 °F - 27.0 °F 75% 30.19 in 10.0 mi Calm Calm - N/A   Partly Cloudy
6:54 AM 34.0 °F 28.8 °F 28.0 °F 79% 30.19 in 10.0 mi ENE 5.8 mph - N/A   Partly Cloudy
7:54 AM 39.0 °F 34.0 °F 28.9 °F 67% 30.22 in 10.0 mi ENE 6.9 mph - N/A   Mostly Cloudy
8:54 AM 43.0 °F 37.2 °F 27.0 °F 53% 30.21 in 10.0 mi East 10.4 mph - N/A   Scattered Clouds
9:54 AM 46.0 °F 41.9 °F 28.0 °F 50% 30.21 in 10.0 mi NE 8.1 mph - N/A   Scattered Clouds
10:54 AM 48.9 °F - 26.1 °F 41% 30.21 in 10.0 mi ENE 6.9 mph - N/A   Partly Cloudy
11:54 AM 51.8 °F - 24.8 °F 35% 30.18 in 10.0 mi Variable 3.5 mph - N/A   Scattered Clouds
12:54 PM 54.0 °F - 27.0 °F 35% 30.17 in 10.0 mi NNE 4.6 mph - N/A   Overcast
1:54 PM 54.0 °F - 27.0 °F 35% 30.15 in 10.0 mi Variable 3.5 mph - N/A   Overcast
2:54 PM 55.4 °F - 26.6 °F 33% 30.13 in 10.0 mi Variable 6.9 mph - N/A   Overcast
3:54 PM 55.0 °F - 25.0 °F 31% 30.14 in 10.0 mi SE 8.1 mph - N/A   Overcast
4:54 PM 55.0 °F - 25.0 °F 31% 30.13 in 10.0 mi ESE 8.1 mph - N/A   Overcast
5:54 PM 54.0 °F - 26.1 °F 34% 30.12 in 10.0 mi East 8.1 mph - N/A   Overcast
6:54 PM 52.0 °F - 25.0 °F 35% 30.11 in 10.0 mi ESE 10.4 mph - N/A   Overcast
7:54 PM 50.0 °F - 25.0 °F 38% 30.08 in 10.0 mi East 13.8 mph - N/A   Overcast
8:54 PM 46.9 °F - 27.0 °F 46% 30.06 in 10.0 mi ESE 17.3 mph 21.9 mph 0.00 in Rain Light Rain
9:54 PM 44.1 °F 39.0 °F 30.9 °F 60% 30.06 in 10.0 mi ESE 9.2 mph - 0.01 in Rain Light Rain
10:54 PM 41.0 °F 38.0 °F 33.1 °F 73% 30.05 in 10.0 mi East 4.6 mph - 0.06 in Rain Light Rain
11:54 PM 41.0 °F 35.2 °F 32.0 °F 70% 30.07 in 10.0 mi ENE 9.2 mph - 0.00 in   Overcast